Wind_Speed
17 17 17 17 18 20 22 25 26 25 29 30 32 33 35 37 38 38 39 42 45 47 48 50 52 54 55 55 55 55 55 55 54 54 53 53 53 52 53 52 52 52 52 51
17 17 17 16 16 18 21 23 25 26 27 29 31 32 33 34 37 38 39 40 41 44 46 48 50 52 53 54 55 55 55 55 55 55 54 53 53 53 53 52 52 52 52 52
16 16 16 15 14 15 19 21 23 26 26 28 29 30 31 32 34 36 38 40 41 42 43 46 48 50 52 53 54 54 54 54 55 55 54 54 53 53 53 53 53 52 52 52
16 15 15 14 13 14 15 18 21 24 25 27 28 28 29 31 32 33 35 38 39 40 41 43 46 48 50 51 52 52 53 54 54 55 55 54 53 53 52 52 51 51 51 52
16 16 15 14 14 14 15 17 19 22 25 25 27 27 29 31 32 32 33 35 36 38 39 41 42 45 47 49 50 51 51 52 52 53 53 54 54 53 52 52 51 51 52 52
16 16 16 15 14 15 15 17 18 20 23 24 25 26 27 30 32 33 34 35 35 36 37 38 40 42 43 46 48 50 51 51 52 52 52 52 52 53 53 52 52 51 52 51
16 16 15 15 16 16 16 16 17 19 21 23 23 23 24 26 29 31 33 34 35 35 36 36 38 40 41 42 44 47 49 50 51 52 52 52 51 51 51 51 51 52 52 51
17 16 16 16 16 17 16 17 18 19 20 21 22 23 24 25 27 28 30 32 33 33 34 35 37 38 39 40 42 43 45 47 48 49 50 50 51 50 50 50 50 51 51 51
17 17 16 16 16 16 16 17 18 19 20 21 21 22 23 24 25 25 27 29 30 31 31 33 35 36 37 38 40 41 43 44 46 47 47 48 48 49 49 50 50 50 50 50
17 16 16 16 16 16 16 16 17 19 20 21 21 21 22 24 24 24 25 27 28 29 30 30 31 33 34 35 37 39 40 41 42 44 45 46 46 47 48 48 49 48 49 49
17 16 16 17 17 16 15 15 16 17 19 19 20 21 22 23 24 24 25 25 26 27 28 29 30 31 32 33 34 36 37 38 40 41 42 43 44 45 45 46 46 47 47 47
19 18 18 17 17 16 16 16 16 16 17 19 20 20 21 21 23 24 25 25 26 27 28 29 30 30 31 32 33 34 35 36 37 38 39 40 41 42 42 43 44 45 46 46
19 19 18 17 17 17 16 17 17 17 17 18 19 20 20 21 22 23 24 25 25 26 27 28 30 30 31 31 32 33 34 35 36 37 37 38 39 39 40 41 41 42 42 43
20 19 18 17 17 16 16 16 16 16 16 17 19 20 20 21 22 22 23 23 24 25 26 27 28 30 30 30 31 33 33 34 35 36 37 38 38 38 39 39 40 40 41 41
20 19 18 18 17 16 16 15 16 16 16 17 18 19 20 21 22 23 23 23 24 25 26 27 27 28 29 30 31 32 33 34 34 35 36 37 38 38 38 39 39 40 40 41
21 20 19 18 17 16 16 15 15 15 15 16 17 18 20 21 22 22 23 24 24 25 25 26 27 28 28 29 30 31 32 34 35 36 36 37 38 38 39 39 39 40 40 41
21 20 20 19 18 17 16 16 15 15 16 16 17 17 19 20 21 22 22 23 24 24 24 25 26 27 27 28 28 29 30 32 34 35 36 36 37 38 38 38 39 39 40 41
21 20 20 20 19 18 17 16 16 16 16 17 17 17 18 19 20 21 23 23 24 24 24 25 25 26 26 26 27 27 28 30 31 33 34 35 35 36 36 37 37 37 38 39
21 20 20 20 20 19 18 17 16 16 17 17 17 17 18 19 19 21 22 23 24 24 25 24 24 25 26 26 26 26 27 27 28 29 31 32 33 33 34 35 35 35 35 36
22 21 21 21 21 20 20 19 18 18 17 17 17 17 18 19 20 21 21 22 23 24 25 25 24 24 25 25 25 25 26 26 26 27 28 29 30 30 31 32 32 33 33 34
22 22 21 21 21 21 20 20 19 19 18 18 18 18 18 19 20 21 21 22 23 23 24 24 24 24 25 26 26 26 26 26 26 26 27 27 27 27 27 28 29 30 31 31
22 22 22 22 22 21 21 20 20 19 19 19 19 19 19 19 20 21 21 22 22 23 24 24 25 25 25 25 26 26 27 26 26 26 26 26 26 27 27 27 27 28 29 29
23 22 22 22 22 22 22 21 20 20 20 20 20 20 20 20 20 20 21 21 22 22 23 23 24 25 25 25 26 26 27 27 26 26 26 25 26 26 27 27 27 27 28 28
23 23 23 23 23 23 22 22 21 21 21 20 20 21 21 21 21 21 21 21 21 21 21 22 23 24 24 24 24 25 26 26 27 27 26 26 26 26 27 27 28 28 28 28
24 24 24 24 24 24 23 22 22 22 22 21 21 21 21 21 21 21 21 21 21 21 21 21 21 22 23 23 24 24 24 25 26 27 27 27 27 27 26 26 26 26 26 27
25 25 25 25 25 24 24 23 23 22 22 21 21 21 21 21 21 21 21 21 21 21 21 21 22 22 23 23 23 24 24 24 25 26 26 26 26 26 26 26 26 26 26 26
24 24 25 25 25 24 23 23 23 22 22 21 21 21 21 21 21 21 21 21 22 21 21 21 21 22 22 23 23 24 24 24 25 25 25 25 25 25 25 24 24 24 24 24
Wind_Direction
292 286 279 271 260 251 246 242 240 240 235 234 232 232 233 234 233 232 230 230 230 229 229 230 230 231 231 231 232 233 234 234 235 236 236 237 238 239 240 242 243 244 246 247
295 287 282 275 263 252 247 244 240 238 234 233 232 231 232 234 234 232 231 230 230 230 230 230 231 231 232 232 233 233 235 235 236 237 238 239 239 240 241 242 243 245 246 247
305 293 282 275 266 256 248 245 242 240 238 235 234 234 233 234 233 232 231 231 231 231 231 231 231 232 232 233 233 234 235 236 237 238 238 239 240 241 242 243 244 245 246 247
308 301 291 280 272 263 253 249 244 241 239 238 235 234 233 232 231 232 231 231 232 233 234 233 232 233 233 234 234 235 236 236 237 238 239 240 240 242 243 244 245 246 246 247
308 304 300 294 281 271 262 252 247 244 240 237 235 235 235 234 232 233 231 231 232 233 234 234 233 232 233 234 235 235 236 236 236 237 238 239 241 242 243 244 245 246 246 248
309 304 301 295 288 278 267 260 254 248 243 241 237 236 235 235 233 232 232 234 234 233 234 234 233 233 233 233 234 235 236 237 237 237 238 239 240 241 243 243 244 245 246 248
307 303 300 297 291 283 274 267 260 253 245 243 241 239 237 236 235 233 234 235 235 234 233 233 233 232 233 233 234 234 235 236 236 237 237 238 239 240 242 243 244 245 246 247
309 305 301 300 293 285 278 270 264 258 250 245 242 240 239 238 236 235 234 233 233 233 232 233 232 233 234 235 234 235 235 235 235 236 237 238 239 240 242 243 245 246 248 248
312 310 308 303 296 290 283 273 266 260 253 249 245 243 240 237 235 235 235 233 232 232 234 235 235 236 237 237 237 237 236 236 236 236 237 239 240 241 243 244 246 247 248 250
314 311 309 307 300 293 286 278 271 262 255 252 248 244 242 239 238 237 238 237 237 237 238 238 237 237 238 239 239 238 237 237 237 238 238 240 241 242 243 245 246 248 249 250
313 309 308 306 303 298 290 283 276 267 260 253 251 246 243 242 241 238 237 238 240 240 240 239 238 238 238 238 237 237 236 236 238 238 239 240 241 243 244 245 247 248 249 250
311 309 309 307 301 298 291 286 281 274 267 258 254 249 246 244 243 242 241 240 240 240 239 240 240 239 238 238 238 238 238 238 238 238 239 240 241 242 244 245 246 248 249 249
314 311 310 309 305 299 293 288 284 278 270 263 256 252 249 247 246 247 246 244 243 242 242 242 240 240 240 238 238 238 239 240 240 240 240 241 242 243 245 246 247 248 249 249
315 314 312 310 307 303 296 290 285 279 271 265 259 255 251 248 248 249 249 248 247 246 245 245 245 243 241 240 239 239 240 241 241 242 243 243 244 245 245 246 247 248 249 250
314 313 311 310 308 305 300 292 284 278 271 266 262 258 254 252 251 250 250 250 248 248 247 247 248 246 245 244 243 242 242 242 243 243 244 245 245 245 246 247 248 249 250 250
313 311 309 308 306 302 300 294 286 279 274 270 266 260 256 255 254 252 250 250 250 249 249 250 249 248 248 248 247 245 244 245 245 246 246 246 246 247 248 248 249 250 252 253
311 309 308 306 304 302 299 295 288 280 276 273 269 263 258 256 254 253 250 250 250 251 250 251 250 250 250 250 250 249 247 247 247 247 246 247 247 248 249 250 252 253 253 255
309 308 306 305 303 301 300 296 291 285 280 276 271 265 260 258 256 254 253 251 250 250 250 252 252 250 250 250 250 249 248 248 248 248 247 247 248 249 250 252 254 254 254 255
309 308 306 304 302 300 299 297 293 289 283 277 272 267 263 261 259 257 255 252 251 251 251 251 251 250 249 248 247 247 247 247 247 248 248 248 249 250 251 252 252 253 254 255
308 307 305 304 301 299 297 295 293 289 284 278 271 268 265 263 261 259 257 255 252 251 251 251 250 250 249 247 247 246 246 246 246 247 248 249 250 251 251 251 251 251 252 253
306 306 305 304 302 299 296 293 290 287 283 278 272 268 267 266 264 262 260 257 254 252 251 251 251 251 250 248 248 247 247 246 247 248 249 249 249 250 251 252 252 252 252 253
304 304 304 304 303 300 297 293 289 286 283 280 274 271 269 268 266 264 262 259 257 255 254 253 252 251 250 250 249 248 248 247 247 248 249 249 250 250 251 252 252 253 253 254
302 303 303 303 302 300 297 294 290 286 283 280 275 271 270 269 268 266 264 261 260 258 256 254 253 252 251 251 250 249 248 247 247 247 248 248 250 251 251 252 253 253 254 255
300 300 301 301 301 300 297 294 291 288 284 280 276 272 270 269 268 266 264 263 262 259 257 256 254 253 252 251 250 249 248 247 246 247 247 248 249 252 253 253 253 255 256 258
299 299 300 300 300 298 296 293 291 289 285 282 278 274 271 270 268 266 264 264 262 259 258 257 256 253 252 251 250 249 248 247 247 247 248 250 251 253 253 253 253 255 257 258
301 301 300 300 300 298 295 292 290 288 285 282 279 276 273 271 269 266 264 263 261 259 258 258 256 254 253 252 252 250 248 247 247 247 249 251 252 251 251 252 253 254 255 257
305 304 303 303 301 299 296 292 289 287 285 282 278 274 273 272 270 267 264 261 260 258 257 257 257 256 255 254 253 251 250 249 248 248 248 249 250 250 250 251 252 253 256 258
Height
5492 5490 5489 5489 5489 5489 5491 5492 5495 5497 5501 5504 5508 5512 5516 5520 5524 5529 5535 5540 5545 5551 5557 5563 5570 5576 5582 5589 5595 5602 5608 5615 5621 5626 5632 5637 5643 5648 5653 5657 5662 5666 5670 5674
5489 5487 5486 5485 5485 5485 5486 5488 5489 5492 5495 5498 5501 5505 5508 5512 5516 5521 5526 5531 5536 5541 5547 5553 5559 5565 5572 5578 5584 5590 5597 5603 5609 5615 5620 5626 5631 5636 5641 5645 5650 5654 5658 5662
5485 5483 5482 5482 5482 5481 5482 5483 5485 5487 5490 5492 5495 5498 5502 5505 5509 5513 5517 5522 5527 5532 5537 5542 5548 5554 5560 5567 5573 5579 5585 5591 5597 5603 5608 5614 5619 5624 5629 5633 5638 5642 5646 5650
5482 5481 5479 5481 5478 5478 5478 5478 5479 5481 5483 5486 5489 5492 5495 5498 5502 5505 5510 5514 5518 5523 5528 5532 5537 5543 5549 5555 5561 5567 5573 5579 5585 5590 5596 5601 5607 5612 5617 5621 5626 5630 5634 5637
5479 5477 5476 5476 5475 5474 5474 5475 5475 5476 5478 5480 5483 5486 5489 5491 5495 5498 5502 5506 5509 5514 5518 5523 5527 5532 5538 5543 5549 5555 5561 5567 5572 5578 5583 5589 5594 5599 5604 5609 5613 5617 5621 5624
5476 5474 5473 5474 5472 5470 5471 5471 5471 5471 5472 5474 5477 5480 5483 5485 5487 5491 5494 5498 5501 5505 5509 5513 5518 5522 5527 5532 5537 5543 5549 5554 5560 5565 5571 5576 5582 5587 5591 5596 5600 5604 5608 5612
5474 5471 5470 5469 5467 5467 5468 5467 5466 5466 5467 5468 5471 5473 5476 5478 5480 5483 5486 5490 5493 5497 5501 5504 5508 5512 5517 5521 5526 5531 5537 5542 5548 5553 5559 5564 5569 5574 5579 5583 5588 5592 5596 5599
5470 5468 5469 5465 5464 5463 5462 5461 5461 5461 5462 5463 5465 5467 5469 5471 5473 5476 5479 5482 5485 5489 5493 5496 5500 5504 5508 5512 5516 5520 5526 5531 5536 5541 5546 5551 5557 5561 5566 5571 5575 5579 5582 5586
5468 5468 5464 5461 5460 5458 5457 5457 5456 5456 5457 5458 5460 5462 5463 5465 5468 5470 5473 5476 5479 5482 5485 5488 5491 5495 5499 5502 5506 5510 5515 5519 5524 5529 5534 5539 5544 5549 5554 5558 5562 5566 5570 5573
5465 5463 5460 5458 5456 5454 5452 5452 5452 5451 5452 5453 5454 5456 5458 5460 5462 5464 5467 5469 5472 5475 5478 5481 5484 5487 5490 5493 5497 5501 5505 5509 5514 5519 5524 5528 5533 5537 5541 5545 5549 5553 5557 5560
5462 5460 5457 5454 5452 5450 5448 5447 5447 5447 5447 5447 5449 5450 5452 5454 5456 5458 5461 5463 5465 5468 5471 5473 5476 5479 5482 5485 5489 5492 5496 5500 5504 5509 5513 5517 5521 5525 5529 5533 5537 5541 5544 5547
5458 5456 5453 5451 5448 5446 5445 5444 5443 5442 5442 5443 5443 5445 5446 5448 5449 5452 5454 5456 5459 5461 5464 5467 5469 5472 5475 5478 5481 5484 5488 5492 5495 5499 5503 5507 5510 5514 5517 5521 5525 5528 5531 5535
5454 5451 5449 5446 5444 5442 5440 5439 5438 5437 5437 5437 5438 5439 5440 5442 5444 5446 5448 5450 5452 5455 5457 5460 5462 5465 5467 5470 5473 5476 5480 5483 5487 5490 5493 5497 5500 5504 5507 5510 5513 5516 5519 5522
5450 5447 5445 5442 5440 5438 5436 5434 5433 5432 5432 5432 5432 5433 5435 5436 5438 5440 5442 5443 5446 5448 5450 5452 5455 5457 5460 5462 5465 5468 5471 5475 5478 5481 5484 5487 5490 5493 5497 5500 5503 5505 5508 5510
5446 5443 5441 5438 5436 5433 5431 5430 5428 5428 5427 5427 5427 5428 5429 5431 5432 5434 5435 5437 5439 5441 5443 5445 5447 5449 5451 5454 5457 5459 5462 5466 5469 5472 5474 5477 5480 5483 5486 5489 5492 5494 5497 5499
5442 5439 5436 5434 5431 5429 5427 5425 5424 5423 5422 5422 5422 5422 5423 5425 5426 5427 5429 5431 5432 5434 5436 5437 5440 5441 5443 5445 5448 5451 5453 5456 5459 5462 5465 5467 5470 5473 5475 5478 5481 5483 5486 5488
5438 5435 5432 5430 5427 5425 5423 5421 5419 5418 5417 5417 5416 5416 5417 5418 5420 5421 5422 5424 5425 5427 5428 5430 5432 5433 5435 5437 5439 5442 5444 5446 5449 5452 5455 5457 5460 5462 5465 5467 5470 5472 5474 5476
5433 5430 5427 5425 5422 5420 5418 5416 5414 5413 5412 5411 5411 5411 5412 5413 5414 5415 5416 5417 5418 5420 5421 5423 5424 5426 5428 5430 5431 5433 5435 5438 5440 5442 5445 5447 5449 5452 5454 5456 5459 5461 5463 5465
5428 5425 5422 5420 5417 5415 5413 5411 5409 5408 5406 5406 5405 5405 5406 5407 5407 5408 5409 5410 5412 5413 5414 5416 5417 5419 5420 5422 5424 5426 5427 5429 5431 5433 5435 5437 5439 5442 5444 5446 5448 5450 5452 5454
5423 5420 5417 5414 5412 5410 5408 5406 5404 5402 5401 5400 5400 5400 5400 5401 5401 5402 5403 5404 5405 5406 5407 5409 5410 5411 5413 5414 5416 5418 5420 5422 5423 5425 5427 5429 5431 5433 5434 5436 5438 5440 5442 5444
5417 5414 5412 5409 5406 5404 5402 5400 5398 5397 5395 5395 5394 5394 5395 5395 5395 5396 5396 5397 5398 5399 5400 5401 5403 5404 5405 5407 5408 5410 5412 5414 5416 5418 5419 5421 5423 5424 5426 5427 5429 5431 5433 5434
5412 5409 5406 5404 5401 5398 5396 5394 5392 5391 5390 5389 5388 5388 5389 5389 5389 5389 5389 5390 5391 5392 5393 5394 5395 5396 5398 5399 5401 5403 5404 5406 5408 5410 5412 5413 5415 5416 5418 5419 5421 5422 5424 5426
5406 5403 5400 5398 5395 5393 5390 5388 5387 5385 5384 5383 5382 5382 5382 5382 5382 5383 5383 5383 5384 5384 5385 5386 5387 5389 5390 5391 5393 5395 5396 5398 5400 5402 5404 5405 5407 5408 5410 5412 5413 5414 5416 5417
5400 5397 5394 5392 5389 5386 5384 5382 5380 5379 5378 5377 5376 5376 5375 5375 5375 5376 5376 5376 5376 5377 5378 5379 5380 5381 5382 5384 5385 5387 5388 5390 5392 5394 5396 5398 5399 5401 5402 5404 5405 5406 5408 5409
5393 5390 5388 5385 5382 5380 5377 5375 5374 5372 5371 5370 5369 5369 5368 5368 5368 5369 5369 5369 5370 5370 5371 5372 5373 5374 5375 5376 5378 5379 5381 5382 5384 5386 5388 5390 5391 5393 5394 5396 5397 5398 5400 5401
5386 5383 5381 5378 5375 5373 5370 5368 5367 5365 5364 5363 5362 5362 5361 5361 5361 5361 5362 5362 5363 5363 5364 5365 5366 5367 5368 5369 5370 5372 5373 5375 5377 5378 5380 5382 5384 5385 5387 5388 5389 5390 5392 5393
5379 5376 5374 5371 5368 5365 5363 5361 5359 5358 5357 5356 5355 5355 5354 5354 5354 5354 5355 5355 5356 5356 5357 5358 5359 5360 5361 5362 5363 5364 5366 5367 5369 5370 5372 5374 5376 5377 5379 5380 5381 5383 5384 5385